Weather History for KFLO - November, 2012

Change the Weather History Date:

Saturday, November 24, 2012

  Actual Average Record
Temperature  
Mean Temperature 48 °F 53 °F  
Max Temperature 61 °F 65 °F 83 °F (1973)
Min Temperature 35 °F 41 °F 19 °F (1970)
Degree Days  
Heating Degree Days 17 12  
Month to date heating degree days 281 224  
Since 1 July heating degree days 374 341  
Cooling Degree Days 0 0  
Month to date cooling degree days 2 16  
Year to date cooling degree days 2310 2058  
Moisture  
Dew Point 27 °F    
Average Humidity 42    
Maximum Humidity 64    
Minimum Humidity 20    
Precipitation  
Precipitation 0.00 in 0.09 in 1.42 in (1967)
Month to date precipitation 1.51 2.12  
Year to date precipitation 37.37 39.35  
Sea Level Pressure  
Sea Level Pressure 30.01 in    
Wind  
Wind Speed 7 mph (NNW)    
Max Wind Speed 15 mph    
Max Gust Speed 21 mph    
Visibility 10 miles    
Events      
T = Trace of Precipitation, MM = Missing Value Source: NWS Daily Summary

Daily Weather History Graph

Daily Weather History Graph

Search for Another Location

Airport or City:

Trip Planner

Search our weather history database for the weather conditions in past years. The results will help you decide how hot, cold, wet, or windy it might be!

Date:

Astronomy

Nov. 24, 2012 Rise Set
Actual Time 7:00 AM EST 5:10 PM EST
Civil Twilight 6:33 AM EST 5:37 PM EST
Nautical Twilight 6:02 AM EST 6:08 PM EST
Astronomical Twilight 5:32 AM EST 6:38 PM EST
Moon 2:47 PM EST (11/24) 3:23 AM EST (11/24)
Length of Visible Light 11h 04m
Length of Day
10h 09m
Waxing Gibbous, 87% of the Moon is Illuminated
Nov 24
Waxing Gibbous
Nov 28
Full
Dec 6
Last Quarter
Dec 13
New
Dec 20
First Quarter

Hourly Weather History & Observations

Time (EST) Temp. Windchill Dew Point Humidity Pressure Visibility Wind Dir Wind Speed Gust Speed Precip Events Conditions
12:53 AM 57.0 °F - 41.0 °F 55% 29.91 in 10.0 mi NW 5.8 mph - N/A   Clear
1:53 AM 55.9 °F - 35.1 °F 45% 29.92 in 10.0 mi NNW 11.5 mph - N/A   Clear
2:53 AM 53.1 °F - 32.0 °F 45% 29.94 in 10.0 mi NNW 10.4 mph - N/A   Clear
3:53 AM 50.0 °F - 30.9 °F 48% 29.94 in 10.0 mi NW 4.6 mph - N/A   Clear
4:53 AM 48.9 °F - 28.9 °F 46% 29.96 in 10.0 mi NW 5.8 mph - N/A   Clear
5:53 AM 46.9 °F - 28.9 °F 50% 29.98 in 10.0 mi NW 4.6 mph - N/A   Clear
6:53 AM 44.1 °F 42.5 °F 30.0 °F 58% 30.00 in 10.0 mi NW 3.5 mph - N/A   Clear
7:53 AM 45.0 °F - 32.0 °F 60% 30.02 in 10.0 mi Calm Calm - N/A   Clear
8:53 AM 50.0 °F - 30.0 °F 46% 30.03 in 10.0 mi NNW 6.9 mph - N/A   Clear
9:53 AM 53.1 °F - 28.9 °F 40% 30.04 in 10.0 mi North 10.4 mph - N/A   Clear
10:53 AM 55.0 °F - 28.9 °F 37% 30.04 in 10.0 mi North 8.1 mph - N/A   Clear
11:53 AM 57.0 °F - 27.0 °F 32% 30.01 in 10.0 mi NNW 10.4 mph - N/A   Clear
12:53 PM 57.9 °F - 25.0 °F 28% 29.99 in 10.0 mi NW 9.2 mph 18.4 mph N/A   Clear
1:53 PM 60.1 °F - 24.1 °F 25% 29.97 in 10.0 mi NNW 11.5 mph - N/A   Clear
2:53 PM 60.1 °F - 19.0 °F 20% 29.96 in 10.0 mi WNW 12.7 mph - N/A   Clear
3:53 PM 60.1 °F - 19.9 °F 21% 29.98 in 10.0 mi NNW 10.4 mph - N/A   Clear
4:53 PM 55.0 °F - 21.9 °F 28% 30.00 in 10.0 mi North 6.9 mph - N/A   Clear
5:53 PM 48.9 °F - 24.1 °F 38% 30.03 in 10.0 mi North 5.8 mph - N/A   Clear
6:53 PM 48.0 °F - 27.0 °F 44% 30.05 in 10.0 mi North 3.5 mph - N/A   Clear
7:53 PM 44.1 °F 42.5 °F 27.0 °F 51% 30.07 in 10.0 mi NNE 3.5 mph - N/A   Clear
8:53 PM 37.9 °F - 27.0 °F 65% 30.09 in 10.0 mi Calm Calm - N/A   Clear
9:53 PM 39.9 °F 34.5 °F 26.1 °F 58% 30.10 in 10.0 mi North 8.1 mph - N/A   Clear
10:53 PM 41.0 °F 36.4 °F 23.0 °F 49% 30.12 in 10.0 mi NNE 6.9 mph - N/A   Clear
11:53 PM 39.0 °F 34.0 °F 21.9 °F 50% 30.13 in 10.0 mi NNE 6.9 mph - N/A   Clear